Location: Assche-ter-Heiden
(50.9174°N, 4.1574°E)
Time: 11:13:42
(UTC+00:00)

Okean O Rocket - Pass Details

Date: 20 January 2020
Orbit: 623 x 645 km, 98.2° (Epoch: 18 February)

Event Time Altitude Azimuth Distance (km) Brightness Sun altitude
Rises 04:30:48 0° 25° (NNE) 2,969 5.4 -28.6°
Reaches altitude 10° 04:33:28 10° 41° (NE) 2,052 4.7 -28.2°
Maximum altitude 04:36:57 22° 92° (E) 1,415 4.1 -27.7°
Drops below altitude 10° 04:40:23 10° 143° (SE) 2,032 4.6 -27.1°
Sets 04:43:00 0° 159° (SSE) 2,932 5.3 -26.7°
